Find Starlink 38031

NORAD ID: 69827 Int'l Des: 2026-154 Owner: SPXS Country: US Constellation: starlink operational
LEOCIRCULAR

当前视图

正在加载3D地球...

About Starlink 38031

Starlink 38031 (NORAD 69827) is a starlink constellation satellite (v2 mini) launched Jul 5, 2026 by SPXS of US. It operates in LEO, CIRCULAR orbit with a mass of 575.00 kg.

即将过境

Passes for default location (London). Set your location on the main map for personalized predictions.

高度历史

Loading altitude history...

两行轨道根数

1 69827U 26154J 26234.96347218 .00019667 00000-0 57290-3 0 9992
2 69827 53.1612 105.3754 0000850 104.1402 255.9696 15.35419091 8853
Epoch: Aug 22, 2026 • Age: 26 hours

当前状态

高度 472.8 km
远地点 / 近地点 N/A
速度 7.63 km/s
星下点 -39.36°S, 31.23°W
发射日期 Jul 5, 2026
运行时间 0.1 years
类型 internet

技术详情

分类 Payload
质量 575.00 kg
干质量 530.00 kg
总质量 575.00 kg
长度 0.30 m
直径 4.10 m
跨度 29.00 m
形状 Box + pan
制造商 SPXS
平台类型 Starlink V2MO
阶段状态 In Orbit
所有者/国家 SPXS/US

Most Searched